Weather History for Whiteville, NC

Change the Weather History Date:

Friday, February 21, 2014

  Actual Average (KLBT) Record (KLBT)
Temperature  
Mean Temperature 64 °F 48 °F  
Max Temperature 75 °F 60 °F 77 °F (2011)
Min Temperature 52 °F 37 °F 23 °F (2009)
Degree Days  
Heating Degree Days 2 17  
Month to date heating degree days 399  
Since 1 July heating degree days 2118  
Cooling Degree Days 0 0  
Month to date cooling degree days 0  
Year to date cooling degree days 1  
Growing Degree Days 14 (Base 50)    
Moisture  
Dew Point 61 °F    
Average Humidity 86    
Maximum Humidity 96    
Minimum Humidity 69    
Precipitation  
Precipitation 0.00 in 0.12 in 0.30 in (2014)
Month to date precipitation 2.12  
Year to date precipitation 5.09  
Sea Level Pressure  
Sea Level Pressure 29.98 in    
Wind  
Wind Speed 8 mph (South)    
Max Wind Speed 20 mph    
Max Gust Speed 29 mph    
Visibility 10 miles    
Events Rain    
T = Trace of Precipitation, MM = Missing Value Source: NWS Daily Summary

Daily Weather History Graph

Daily Weather History Graph

Search for Another Location

Airport:

Trip Planner

Search our weather history database for the weather conditions in past years. The results will help you decide how hot, cold, wet, or windy it might be!

Date:

Astronomy

Feb. 21, 2014 Rise Set
Actual Time 6:53 AM EST 6:04 PM EST
Civil Twilight 6:27 AM EST 6:29 PM EST
Nautical Twilight 5:58 AM EST 6:58 PM EST
Astronomical Twilight 5:29 AM EST 7:27 PM EST
Moon No Moon Rise 10:33 AM EST (2/21)
Length of Visible Light 12h 01m
Length of Day
11h 10m
Waning Gibbous, 61% of the Moon is Illuminated
Feb 21
Waning Gibbous
Feb 22
Last Quarter
Mar 1
New
Mar 8
First Quarter
Mar 16
Full

Hourly Weather History & Observations

Time (EST) Temp. Dew Point Humidity Pressure Visibility Wind Dir Wind Speed Gust Speed Precip Events Conditions
12:15 AM 62.6 °F 61.0 °F 94% 30.07 in 10.0 mi South 4.6 mph - N/A   Clear
12:35 AM 62.1 °F 60.4 °F 94% 30.05 in 10.0 mi SSE 4.6 mph - N/A   Clear
12:55 AM 61.7 °F 60.1 °F 94% 30.04 in 10.0 mi SSE 4.6 mph - N/A   Clear
1:15 AM 61.7 °F 60.3 °F 95% 30.03 in 10.0 mi South 5.8 mph - N/A   Clear
1:35 AM 62.6 °F 61.2 °F 95% 30.02 in 10.0 mi South 5.8 mph - N/A   Scattered Clouds
1:55 AM 63.1 °F 61.5 °F 94% 30.01 in 10.0 mi South 6.9 mph - N/A   Scattered Clouds
2:15 AM 63.9 °F 61.9 °F 93% 30.01 in 10.0 mi South 8.1 mph - N/A   Scattered Clouds
2:35 AM 64.8 °F 62.2 °F 92% 30.01 in 10.0 mi South 8.1 mph - N/A   Scattered Clouds
2:55 AM 65.3 °F 62.2 °F 90% 30.00 in 10.0 mi South 8.1 mph 17.3 mph N/A   Scattered Clouds
3:15 AM 65.3 °F 61.9 °F 89% 30.00 in 10.0 mi South 9.2 mph - N/A   Clear
3:35 AM 65.3 °F 61.9 °F 89% 30.00 in 10.0 mi South 8.1 mph - N/A   Clear
3:55 AM 65.3 °F 61.7 °F 88% 30.01 in 10.0 mi South 8.1 mph - N/A   Scattered Clouds
4:15 AM 65.3 °F 61.7 °F 88% 30.00 in 10.0 mi South 5.8 mph - N/A   Mostly Cloudy
4:35 AM 65.3 °F 61.7 °F 88% 30.00 in 10.0 mi South 8.1 mph - N/A   Scattered Clouds
4:55 AM 65.5 °F 61.9 °F 88% 30.00 in 10.0 mi South 9.2 mph - N/A   Mostly Cloudy
5:15 AM 65.7 °F 61.9 °F 88% 29.98 in 10.0 mi South 8.1 mph - N/A   Mostly Cloudy
5:35 AM 65.5 °F 62.1 °F 89% 29.98 in 10.0 mi South 9.2 mph - N/A   Scattered Clouds
5:55 AM 65.5 °F 62.1 °F 89% 29.99 in 10.0 mi South 9.2 mph - N/A   Mostly Cloudy
6:15 AM 65.5 °F 62.1 °F 89% 29.98 in 10.0 mi South 6.9 mph - N/A   Scattered Clouds
6:35 AM 65.3 °F 62.1 °F 89% 29.98 in 10.0 mi South 9.2 mph - N/A   Clear
6:55 AM 65.3 °F 62.1 °F 89% 29.97 in 10.0 mi SSE 9.2 mph 16.1 mph N/A   Scattered Clouds
7:15 AM 65.5 °F 62.2 °F 89% 29.97 in 10.0 mi South 9.2 mph - N/A   Scattered Clouds
7:35 AM 65.7 °F 62.4 °F 89% 29.98 in 7.0 mi South 10.4 mph - N/A   Scattered Clouds
7:55 AM 66.2 °F 62.6 °F 88% 29.98 in 10.0 mi South 11.5 mph - N/A   Scattered Clouds
8:15 AM 67.1 °F 62.8 °F 86% 29.98 in 10.0 mi South 13.8 mph 20.7 mph N/A   Scattered Clouds
8:35 AM 68.2 °F 63.1 °F 84% 29.99 in 10.0 mi South 12.7 mph 19.6 mph N/A   Clear
8:55 AM 68.4 °F 63.5 °F 84% 29.98 in 10.0 mi South 11.5 mph 20.7 mph N/A   Scattered Clouds
9:15 AM 69.8 °F 64.2 °F 82% 29.97 in 10.0 mi South 12.7 mph 19.6 mph N/A   Scattered Clouds
9:35 AM 71.2 °F 64.4 °F 79% 29.96 in 10.0 mi South 18.4 mph 24.2 mph N/A   Scattered Clouds
9:55 AM 72.5 °F 64.2 °F 75% 29.95 in 10.0 mi South 15.0 mph 20.7 mph N/A   Scattered Clouds
10:15 AM 73.4 °F 63.9 °F 72% 29.95 in 10.0 mi South 16.1 mph 25.3 mph N/A   Scattered Clouds
10:35 AM 74.3 °F 63.9 °F 70% 29.95 in 10.0 mi SSW 19.6 mph 23.0 mph N/A   Scattered Clouds
10:55 AM 74.3 °F 63.7 °F 69% 29.95 in 10.0 mi SSW 17.3 mph 27.6 mph N/A   Overcast
11:15 AM 74.3 °F 64.0 °F 70% 29.94 in 10.0 mi South 15.0 mph 25.3 mph N/A   Overcast
11:35 AM 75.2 °F 64.4 °F 69% 29.91 in 10.0 mi South 15.0 mph 24.2 mph N/A   Mostly Cloudy
11:55 AM 75.6 °F 64.8 °F 69% 29.91 in 10.0 mi South 16.1 mph 24.2 mph N/A   Mostly Cloudy
12:15 PM 75.4 °F 64.6 °F 69% 29.90 in 10.0 mi South 17.3 mph 27.6 mph N/A   Overcast
12:35 PM 74.7 °F 64.9 °F 72% 29.89 in 10.0 mi South 19.6 mph 28.8 mph N/A Rain Rain
12:55 PM 74.3 °F 64.9 °F 72% 29.87 in 10.0 mi South 15.0 mph 21.9 mph N/A   Overcast
5:15 PM 67.1 °F 59.7 °F 77% 29.91 in - SSW 6.9 mph - N/A   Unknown
5:35 PM 66.2 °F 59.5 °F 79% 29.93 in 10.0 mi South 5.8 mph - N/A   Mostly Cloudy
5:55 PM 65.8 °F 59.7 °F 81% 29.94 in 10.0 mi SSW 4.6 mph - N/A   Overcast
6:15 PM 65.3 °F 59.9 °F 83% 29.95 in 10.0 mi South 4.6 mph - N/A   Overcast
6:35 PM 64.6 °F 59.9 °F 85% 29.95 in 10.0 mi South 3.5 mph - N/A   Mostly Cloudy
6:55 PM 63.9 °F 59.5 °F 86% 29.95 in 10.0 mi Calm Calm - N/A   Mostly Cloudy
7:15 PM 62.8 °F 59.2 °F 88% 29.95 in 10.0 mi South 3.5 mph - N/A   Scattered Clouds
7:35 PM 62.4 °F 59.2 °F 89% 29.96 in 10.0 mi SSW 3.5 mph - N/A   Mostly Cloudy
7:55 PM 62.2 °F 59.2 °F 90% 29.96 in 10.0 mi SSW 3.5 mph - N/A   Scattered Clouds
8:15 PM 61.2 °F 59.0 °F 93% 29.97 in 10.0 mi SSW 4.6 mph - N/A   Clear
8:35 PM 61.2 °F 58.8 °F 92% 29.98 in 10.0 mi SSW 3.5 mph - N/A   Scattered Clouds
8:55 PM 60.3 °F 58.5 °F 94% 29.98 in 10.0 mi SW 3.5 mph - N/A   Scattered Clouds
9:15 PM 59.2 °F 58.1 °F 96% 29.99 in 10.0 mi Calm Calm - N/A   Clear
9:35 PM 59.4 °F 58.3 °F 96% 30.00 in 7.0 mi Calm Calm - N/A   Clear
9:55 PM 59.4 °F 56.3 °F 90% 30.01 in 10.0 mi SW 3.5 mph - N/A   Clear
10:15 PM 58.6 °F 55.6 °F 90% 30.02 in 10.0 mi Calm Calm - N/A   Clear
10:35 PM 56.5 °F 54.9 °F 94% 30.02 in 10.0 mi Calm Calm - N/A   Clear
10:55 PM 55.8 °F 53.6 °F 92% 30.02 in 10.0 mi Calm Calm - N/A   Clear
11:15 PM 55.0 °F 51.1 °F 86% 30.02 in 10.0 mi Calm Calm - N/A   Clear
11:35 PM 52.0 °F 49.1 °F 90% 30.02 in 10.0 mi Calm Calm - N/A   Clear
11:55 PM 52.3 °F 49.5 °F 90% 30.03 in 10.0 mi Calm Calm - N/A   Clear